COSMOS 2361

Satellite information

Favourite Embed

Satellite Type and Status

PAYLOADIN ORBIT

Key statistics

Satellite COSMOS 2361 at a glance.

Uptime

9694

Days in orbit

Revolutions

≈ 13.7

Per day

Orbit

LEO

Low Earth Orbit

Inclination

82.9

Latest

Satellite identification and parameters

Extended collection of information and parameters for COSMOS 2361.

Object identification

Identified? True

Debris? False

Object name: COSMOS 2361

International designator: 1998-076A

Object number (NORAD): 25590

Object ID (CCSDS): 25590

Country: COMMONWEALTH OF INDEPENDENT STATES (CIS)

Current information (Y/N): Y

RCS size: LARGE

Orbital parameters

Period: 104.865 minutes

Inclination: 82.9344 deg

SMA: 7366.249 km

Apoapsis: 1011.086 km

Periapsis: 965.141 km

RAAN: 100.0858 deg

Eccentricy: 0.0031186

Argument of periapsis: 344.5414 deg

Mean anomaly: 86.2446 deg

Mean motion: 13.73198157 rev/day

Mean motion (dot): 0.0000004 rev/day2

B* drag term: 0.000027401 1/REarth

Two-line elements (TLE)

Creation date: July 9, 2025, 2:22 a.m.

Reference frame: TEME

Reference center: EARTH

Epoch: July 8, 2025, 9:09 p.m. UTC

TLE line 0: 0 COSMOS 2361

TLE line 1: 1 25590U 98076A 25189.88141138 .00000040 00000-0 27401-4 0 9992

TLE line 2: 2 25590 82.9344 100.0858 0031186 344.5414 86.2446 13.73198157329581

Live tracking on map

Real-time ground track for satellite COSMOS 2361.

In-orbit conjunctions

A list of the most updated potential collisions computed for object COSMOS 2361.

Target Orbit TCA Probability of collision Miss distance Type
CZ-4 DEB SSO 2024-08-15 15:34:38 0.0004772378 127.0 (m) DEBRIS

Associated space launch

Navigation satellite providing location information for the Tsiklon-B navigation system

COSMOS 2361 was lifted into orbit during the mission ‘Kosmos-3M | Parus 90’, on board a Kosmos-3M space rocket.

The launch took place on Dec. 24, 1998, 8:02 p.m. from 132/1 (132L).

For more information about the launch, click the button.

Launch to space Kosmos-3M | Parus 90
Kosmos-3M | Parus 90

Agency: N/A

Status: Launch Successful

Launch date: Dec. 24, 1998, 8:02 p.m. UTC

Rocket: Kosmos-3M

Launch pad: 132/1 (132L)

Location: Plesetsk Cosmodrome, Russian Federation

...

Latest news about this satellite

There are no fresh news available about this satellite. Check back as we update our databases every day.


Newsletter sign-up

Weekly statistics, charts and insights to help you stay on top of the space industry.